Temperature
30 30 30 31 32 32 31 31 31 31 32 31 30 30 29 28 27 26 25 23 22 21 20 20 19 19 19 18 18 18 18 18 18 18 18 18 18 18 18 17 17 17 17 17
30 30 31 32 32 32 32 31 31 31 32 31 30 30 29 28 27 26 25 23 22 21 20 20 19 19 19 18 18 18 18 18 18 18 18 18 18 18 17 17 17 17 17 17
29 31 32 32 32 31 31 31 31 30 31 31 30 29 28 28 27 26 26 24 23 22 21 20 19 19 19 18 18 18 18 18 18 18 18 18 18 17 17 17 17 17 16 16
31 32 32 32 32 32 31 32 31 31 30 29 28 27 27 27 27 26 26 25 23 22 21 20 20 19 19 18 18 18 18 18 18 18 18 18 18 18 17 17 17 17 16 16
31 32 32 31 32 32 31 32 31 31 30 28 27 26 27 28 26 26 26 25 24 23 22 21 20 19 19 18 18 18 18 18 18 18 18 18 18 18 18 17 17 16 16 16
31 33 33 32 33 33 32 31 30 29 27 24 25 26 26 27 28 28 27 26 24 23 22 21 20 20 19 19 18 18 18 18 18 18 18 18 18 18 17 17 17 17 16 16
30 31 32 33 32 32 31 29 27 25 23 22 24 25 26 28 29 29 27 26 25 24 22 21 21 20 19 19 18 18 18 18 18 18 18 18 18 18 17 17 17 17 17 16
29 29 31 32 31 31 30 29 27 25 24 24 24 25 27 29 30 29 27 26 25 24 23 22 21 20 19 19 19 18 18 18 18 18 17 17 17 17 17 17 17 17 17 17
30 30 31 31 32 31 30 30 30 28 27 27 25 25 27 29 29 29 27 26 25 24 23 22 21 20 20 19 19 18 18 18 18 18 17 17 17 17 17 17 17 17 17 17
31 29 31 31 31 31 31 31 30 28 26 26 25 24 24 25 28 28 28 27 26 25 24 23 22 21 20 20 19 19 18 18 18 18 18 17 17 17 17 17 17 17 16 16
31 29 30 30 29 29 30 30 29 29 28 26 25 25 26 26 27 28 28 27 26 25 24 23 22 22 21 20 19 19 18 18 18 18 18 17 17 17 17 17 17 17 16 16
30 30 29 30 30 30 30 29 28 27 26 27 27 26 28 28 29 29 28 28 27 26 25 24 23 22 21 21 20 19 19 18 18 18 18 18 17 17 17 17 17 17 16 16
29 28 27 28 28 28 28 28 28 28 28 27 27 26 28 28 28 28 28 27 27 26 25 24 24 23 22 21 21 20 19 19 18 18 18 18 17 17 17 17 17 17 17 16
29 28 28 27 27 25 24 25 27 27 27 27 27 26 26 27 27 28 28 27 27 26 25 25 24 23 22 22 21 21 20 19 19 18 18 18 18 18 17 17 17 16 16 16
29 28 28 28 27 26 25 25 26 26 27 27 27 26 25 26 27 28 27 27 26 26 25 25 24 23 23 22 22 21 20 20 20 19 19 18 18 18 17 17 17 17 16 16
26 27 27 27 28 27 26 26 26 27 28 29 28 27 27 28 27 27 27 26 26 25 25 25 24 23 23 22 22 21 21 20 20 20 19 19 18 18 18 17 17 17 17 16
24 25 26 26 27 27 26 27 27 27 28 29 28 27 28 27 27 26 25 25 25 25 24 24 24 23 23 22 22 21 21 21 20 20 19 19 18 18 18 17 17 17 17 17
22 23 24 25 25 24 27 28 28 28 28 28 28 28 28 27 26 25 24 24 24 24 23 23 23 23 22 22 22 21 21 20 20 19 19 19 18 18 17 17 17 17 17 16
21 22 23 24 24 24 26 26 27 26 26 27 27 27 27 26 26 24 23 23 23 22 22 22 22 22 22 22 21 21 21 20 20 19 19 18 18 18 17 17 17 17 16 16
23 23 23 24 24 23 24 25 25 25 24 26 26 26 26 26 24 23 22 22 21 21 21 21 21 21 21 21 21 21 20 20 19 19 18 18 18 17 17 17 17 16 16 16
23 23 23 24 23 23 23 24 25 23 23 25 25 25 24 24 23 22 21 21 20 20 20 20 20 20 20 20 20 19 19 18 18 18 18 17 17 17 17 16 16 16 16 15
21 22 23 23 22 22 23 24 23 22 23 23 23 23 22 22 21 21 20 20 20 19 19 19 18 18 18 18 18 18 17 17 17 17 17 17 16 16 16 16 15 15 15 15
19 19 20 21 21 21 22 22 22 23 23 22 22 22 22 21 21 20 19 18 18 18 18 18 17 17 17 17 17 17 16 16 16 16 16 16 15 15 15 15 15 14 14 14
19 19 20 19 19 19 20 21 22 22 22 22 22 21 21 20 19 18 18 17 17 17 16 16 16 16 15 15 16 15 15 15 15 15 15 15 15 14 14 14 14 14 13 13
19 19 19 18 19 19 19 20 21 21 21 21 21 20 20 19 18 17 17 16 16 16 15 15 15 14 14 14 14 14 14 14 14 14 14 14 14 14 13 13 13 13 13 13
19 19 19 18 18 19 19 19 20 20 20 20 19 18 18 18 17 16 16 15 15 15 15 14 14 14 14 13 13 13 13 13 13 13 13 13 13 13 13 13 13 13 13 13
Wind_Speed
16 15 15 14 12 12 12 12 10 7 4 6 8 6 8 9 9 8 8 8 7 7 8 8 9 10 12 11 11 10 10 9 8 6 6 5 5 4 4 5 8 7 6 6
16 18 18 16 13 12 13 13 12 8 6 8 9 8 7 9 9 9 9 9 9 9 9 10 10 11 12 12 12 11 11 10 9 7 5 5 5 4 5 5 6 7 6 5
20 17 15 14 13 12 13 12 11 11 11 10 9 9 6 9 8 9 9 10 11 11 11 11 11 11 12 13 13 12 11 11 9 9 6 5 4 3 5 7 5 5 6 5
20 20 16 14 14 13 12 10 12 13 13 9 6 6 5 10 10 9 10 10 11 11 13 13 13 12 13 13 12 12 11 10 9 8 7 8 7 6 7 6 6 5 5 5
20 19 17 16 14 13 12 10 13 14 14 10 7 7 5 10 10 12 11 11 11 12 13 13 14 13 14 14 13 12 12 10 9 8 8 8 6 6 6 6 7 6 5 4
22 19 17 17 15 13 11 11 12 10 6 6 10 9 4 7 10 12 12 12 11 12 13 13 13 12 12 13 13 13 12 11 10 9 8 7 6 6 8 8 8 6 5 5
23 22 18 15 15 13 10 9 7 6 2 4 11 6 2 5 6 10 12 13 13 13 13 13 13 14 13 14 14 13 13 11 10 9 8 7 6 6 8 7 7 6 6 6
20 18 17 15 15 13 11 11 9 7 6 6 5 3 3 3 7 10 13 14 13 14 13 14 14 14 14 14 14 13 13 12 11 9 8 7 7 6 6 6 5 5 3 6
18 16 14 13 16 16 14 12 11 10 13 10 1 1 2 3 6 9 12 14 14 14 15 15 15 15 15 14 14 14 13 11 10 10 8 7 7 6 6 6 4 4 3 6
21 15 14 12 12 15 15 11 8 8 7 7 3 1 2 4 6 9 12 14 14 14 15 15 15 16 15 14 13 13 13 11 10 11 10 10 8 7 6 7 6 4 5 5
21 19 15 13 12 14 12 11 9 8 7 7 6 1 4 6 5 8 11 14 15 15 15 15 14 15 15 15 15 13 13 12 11 11 10 9 9 8 7 6 7 6 5 6
16 16 15 14 12 13 12 11 10 9 9 9 8 1 2 2 2 7 9 12 14 14 15 15 15 14 14 15 15 14 14 14 12 11 10 9 9 9 8 8 7 7 7 7
11 11 14 14 12 8 8 10 10 11 10 10 9 2 0 1 1 3 8 10 12 13 14 15 14 14 14 14 14 15 15 15 14 13 12 11 10 10 9 8 8 8 8 7
7 10 14 15 8 4 6 14 15 11 10 10 8 3 3 2 2 4 6 9 10 12 12 13 13 12 12 11 12 14 14 14 14 13 13 12 11 11 10 9 9 9 9 8
8 13 15 13 7 7 8 12 14 14 14 11 6 4 3 4 4 5 5 7 8 9 11 11 12 12 11 11 11 12 12 12 13 13 13 12 11 10 10 9 9 9 9 11
6 9 11 14 12 10 10 11 14 16 16 12 8 5 5 4 5 5 5 5 5 7 9 9 9 10 11 11 11 11 11 11 11 12 12 11 11 11 11 10 9 9 9 9
5 7 10 12 10 10 12 12 14 13 11 8 5 2 5 6 8 7 6 4 4 5 5 6 7 8 9 10 9 10 10 10 10 9 9 10 11 11 10 11 10 9 9 8
7 7 6 9 9 13 9 7 7 7 6 1 2 3 4 8 9 8 6 4 2 2 3 2 3 4 7 8 10 9 9 9 9 9 8 8 9 10 9 9 9 9 8 8
9 8 7 7 10 10 7 5 4 2 1 2 3 4 6 7 8 8 7 5 4 3 3 3 2 1 2 5 7 8 9 8 8 8 8 8 8 8 8 8 8 7 6 7
13 10 9 9 8 7 2 3 4 4 2 4 5 5 5 4 4 6 7 8 6 5 4 4 3 3 4 3 4 5 6 5 5 4 4 4 5 5 6 6 5 5 4 5
10 9 12 12 9 3 2 3 3 5 2 4 5 6 6 7 7 7 8 9 8 7 8 7 8 7 7 6 6 6 5 4 4 4 3 2 3 4 4 4 3 3 4 5
4 5 7 7 7 3 4 2 1 3 6 6 6 8 10 10 11 11 11 10 10 9 10 10 9 10 9 9 8 9 7 6 5 6 6 5 4 2 2 3 2 2 2 4
4 3 1 1 1 4 5 5 3 6 7 6 6 8 10 11 12 13 12 12 11 11 11 10 11 11 10 10 9 9 8 7 7 7 6 5 4 3 2 2 2 2 3 3
1 2 1 3 4 5 5 5 6 7 7 6 8 9 10 12 13 13 12 12 11 11 11 11 11 11 11 10 10 9 7 7 7 6 5 4 3 2 1 1 1 1 2 2
3 3 2 3 2 4 6 6 6 8 8 9 9 11 13 14 14 13 12 11 11 11 11 10 10 10 10 9 9 8 6 5 5 4 3 2 2 1 0 0 1 1 0 0
4 3 2 1 2 4 4 3 7 9 10 11 13 13 14 14 14 13 11 10 10 10 10 10 9 9 8 8 7 7 6 5 5 3 2 1 1 0 1 2 2 3 3 5
Wind_Direction
229 235 245 251 256 268 282 292 297 298 292 278 276 246 186 179 180 180 173 174 180 179 166 162 163 166 159 159 157 152 152 151 147 151 160 156 148 150 145 143 144 156 154 135
236 237 246 258 266 273 281 290 297 303 293 275 277 262 192 175 180 180 178 173 176 174 162 158 165 167 159 158 157 151 152 156 158 161 161 160 147 161 154 137 143 154 144 148
236 244 241 251 263 271 279 287 298 295 285 275 284 268 191 167 174 181 183 173 176 173 166 165 167 163 158 160 160 160 159 161 161 158 157 149 141 159 146 140 151 160 155 160
242 251 253 251 258 268 278 291 293 291 288 289 285 274 192 172 179 188 188 177 176 172 167 167 168 163 162 163 162 153 156 158 158 162 162 162 172 171 156 153 153 159 165 164
245 247 249 252 258 268 280 292 292 294 293 295 297 275 200 175 186 187 184 176 171 167 168 168 167 165 164 164 161 156 156 159 163 172 172 177 177 168 150 145 142 161 166 171
254 254 250 252 257 260 272 286 294 301 315 309 280 271 193 185 196 183 173 169 167 166 164 163 163 162 163 162 160 159 160 162 167 171 170 181 182 160 145 148 157 180 169 176
249 252 251 252 255 255 260 274 292 305 313 271 277 282 186 173 172 168 163 163 166 166 165 165 165 167 166 164 162 161 162 163 167 168 168 173 168 150 148 163 171 194 173 164
242 242 240 241 250 254 252 253 258 281 285 273 259 253 166 152 129 145 152 156 162 165 165 167 166 166 169 167 163 160 162 165 168 165 162 162 163 173 174 191 178 191 184 152
246 244 239 232 238 246 253 256 272 280 280 285 239 344 55 126 126 143 150 157 164 166 166 168 168 169 171 170 166 163 163 166 168 164 160 167 180 197 171 168 194 170 149 144
249 257 244 236 233 235 247 264 277 282 296 302 307 86 151 273 170 159 162 164 166 168 168 171 172 174 173 171 166 163 165 171 170 167 174 179 186 184 170 174 183 160 147 133
239 251 251 234 226 243 249 250 261 278 281 294 297 276 194 218 210 174 169 167 169 171 172 172 173 174 172 172 171 170 168 172 174 176 185 174 177 181 181 184 174 164 159 152
232 243 249 245 233 235 245 253 254 256 269 277 289 277 164 156 196 174 166 162 166 171 172 173 174 173 174 176 175 174 175 180 181 181 181 179 180 181 184 186 177 170 171 170
234 234 244 243 238 239 254 259 263 260 261 267 276 260 162 262 127 164 162 160 162 168 171 173 173 174 176 178 177 177 181 184 184 184 185 184 184 185 191 186 177 175 176 183
249 235 241 245 230 201 259 275 272 262 256 256 270 262 205 235 175 171 157 157 165 167 170 172 170 171 174 177 177 178 184 184 184 184 186 186 188 189 190 189 184 184 185 191
253 236 241 249 215 211 222 247 266 266 264 264 256 251 217 207 175 155 153 157 158 163 169 171 170 171 174 176 177 180 184 183 184 182 187 187 187 189 190 191 191 190 193 200
256 251 245 250 233 218 228 237 241 246 253 256 246 213 185 177 138 131 125 142 162 170 170 170 169 168 173 178 180 183 185 184 182 184 189 187 187 191 193 192 193 195 198 205
248 253 249 250 252 254 248 245 242 243 255 260 265 192 156 138 122 114 112 127 182 172 163 168 171 170 176 177 182 187 185 181 181 187 189 186 188 193 196 198 195 197 200 204
271 269 251 250 254 252 257 266 266 257 256 266 119 123 116 121 120 112 113 123 109 102 118 114 165 171 175 178 181 182 183 181 183 186 191 190 191 195 194 199 196 195 199 202
231 243 244 244 243 252 268 298 306 286 307 51 106 94 95 107 114 99 94 98 91 68 81 86 85 152 165 174 178 174 177 179 186 189 191 192 191 193 192 196 198 194 197 203
212 215 232 242 242 250 272 312 320 318 241 57 82 87 98 109 106 84 81 80 73 60 67 79 83 68 66 66 120 150 160 157 162 171 177 183 175 178 184 186 190 192 194 212
210 213 229 240 245 242 6 308 285 236 175 78 81 86 88 78 88 94 86 87 83 71 66 69 69 65 56 52 71 92 92 97 110 109 113 122 145 157 172 169 175 189 204 216
268 241 234 240 236 238 6 32 48 82 82 74 74 89 94 95 98 90 81 77 76 76 74 75 72 66 59 61 69 73 66 64 76 84 83 78 78 103 161 146 156 176 228 236
349 351 327 332 71 53 46 72 101 107 95 93 98 97 104 103 98 94 86 76 68 67 67 69 73 68 60 57 61 66 56 57 67 76 83 84 92 89 68 124 175 200 223 238
310 355 69 67 49 37 31 62 64 84 94 96 99 104 103 101 98 92 87 81 74 67 64 65 69 67 60 55 58 57 52 54 62 66 70 74 76 84 73 109 172 216 227 237
338 5 38 84 64 70 48 47 72 87 87 85 87 94 97 97 95 93 88 82 78 73 68 68 69 69 64 58 54 53 51 55 61 64 69 75 66 22 37 145 252 223 162 165
22 21 17 65 39 83 90 68 84 87 84 85 85 83 87 92 95 92 87 83 81 79 76 73 70 68 66 62 54 43 37 39 43 43 34 30 90 308 261 233 242 232 218 200
Height
1476 1477 1475 1467 1462 1461 1460 1461 1463 1459 1453 1457 1459 1461 1462 1467 1471 1475 1480 1483 1486 1488 1490 1493 1495 1498 1502 1505 1510 1513 1517 1521 1525 1529 1533 1536 1539 1542 1544 1546 1547 1549 1551 1553
1473 1472 1464 1459 1456 1456 1458 1461 1461 1456 1451 1454 1457 1457 1456 1461 1467 1472 1477 1480 1484 1487 1489 1491 1495 1497 1500 1504 1508 1512 1516 1520 1524 1528 1532 1535 1538 1540 1543 1545 1546 1549 1551 1552
1470 1462 1456 1456 1457 1458 1458 1460 1460 1459 1453 1449 1456 1461 1458 1460 1465 1470 1474 1477 1481 1484 1487 1491 1494 1497 1500 1504 1507 1512 1515 1520 1523 1527 1531 1534 1537 1540 1542 1544 1546 1548 1550 1551
1461 1455 1453 1455 1456 1455 1461 1452 1453 1453 1458 1461 1462 1477 1463 1460 1464 1468 1471 1474 1478 1482 1486 1489 1493 1497 1500 1503 1507 1511 1515 1519 1522 1526 1529 1532 1535 1538 1541 1543 1544 1547 1549 1550
1457 1452 1452 1455 1452 1451 1453 1448 1450 1453 1458 1464 1468 1473 1467 1457 1463 1464 1467 1471 1475 1479 1484 1487 1491 1495 1499 1503 1506 1510 1514 1517 1520 1524 1528 1531 1535 1537 1540 1542 1544 1545 1547 1548
1449 1445 1445 1446 1445 1445 1446 1449 1453 1457 1468 1489 1478 1474 1470 1457 1455 1456 1461 1467 1472 1477 1482 1486 1490 1494 1498 1502 1505 1509 1512 1516 1520 1523 1527 1530 1533 1536 1538 1540 1542 1544 1545 1546
1454 1446 1442 1443 1446 1445 1448 1462 1479 1487 1494 1497 1475 1473 1465 1448 1445 1450 1457 1463 1470 1475 1480 1485 1489 1493 1497 1501 1504 1507 1510 1514 1518 1522 1525 1528 1531 1533 1536 1538 1540 1542 1544 1544
1458 1456 1442 1441 1445 1449 1450 1458 1479 1494 1495 1486 1475 1475 1459 1444 1444 1448 1454 1461 1468 1473 1478 1483 1487 1491 1495 1499 1503 1506 1508 1512 1517 1520 1523 1526 1529 1532 1534 1537 1539 1540 1542 1543
1449 1450 1436 1437 1439 1443 1449 1450 1447 1461 1466 1472 1474 1467 1456 1444 1446 1448 1454 1460 1466 1471 1476 1481 1485 1490 1494 1498 1501 1505 1508 1511 1515 1518 1521 1524 1527 1530 1533 1535 1537 1539 1540 1541
1437 1446 1437 1434 1436 1437 1438 1441 1449 1460 1476 1481 1475 1473 1472 1458 1449 1449 1452 1457 1464 1469 1475 1479 1484 1488 1492 1496 1500 1504 1507 1510 1513 1516 1519 1522 1525 1527 1530 1532 1534 1536 1538 1539
1431 1443 1440 1437 1443 1445 1443 1445 1448 1453 1458 1475 1482 1477 1454 1452 1449 1448 1450 1455 1461 1466 1472 1477 1482 1486 1491 1495 1498 1502 1505 1508 1511 1515 1517 1520 1522 1525 1527 1529 1532 1533 1535 1536
1428 1435 1442 1437 1432 1432 1437 1444 1448 1464 1465 1459 1465 1467 1443 1443 1443 1445 1448 1453 1458 1464 1469 1474 1479 1484 1488 1492 1496 1499 1502 1506 1509 1512 1515 1517 1520 1522 1524 1527 1529 1530 1532 1533
1425 1435 1449 1448 1444 1438 1441 1441 1443 1447 1452 1457 1464 1464 1443 1441 1442 1445 1448 1452 1457 1462 1467 1472 1477 1481 1485 1489 1493 1496 1500 1503 1506 1509 1512 1514 1517 1519 1522 1524 1526 1527 1529 1531
1424 1430 1441 1450 1448 1449 1455 1450 1445 1450 1455 1454 1454 1454 1447 1444 1444 1446 1448 1452 1456 1460 1465 1469 1474 1478 1483 1487 1490 1493 1497 1500 1503 1506 1508 1510 1513 1515 1518 1521 1522 1524 1526 1528
1424 1431 1430 1430 1435 1440 1448 1451 1446 1446 1445 1447 1447 1449 1447 1443 1443 1445 1449 1452 1455 1459 1463 1467 1471 1475 1479 1483 1487 1490 1493 1497 1500 1502 1505 1507 1509 1512 1514 1516 1519 1521 1522 1524
1428 1430 1431 1434 1431 1436 1442 1442 1441 1442 1437 1434 1436 1441 1437 1439 1443 1446 1449 1451 1455 1459 1461 1465 1469 1472 1476 1479 1483 1487 1490 1493 1496 1498 1501 1504 1506 1508 1510 1512 1514 1517 1518 1520
1434 1437 1438 1438 1432 1435 1443 1436 1434 1433 1429 1429 1436 1437 1435 1438 1443 1447 1450 1454 1456 1458 1460 1464 1467 1470 1472 1476 1479 1482 1486 1489 1492 1494 1497 1500 1502 1504 1506 1509 1510 1512 1514 1516
1441 1441 1439 1439 1442 1455 1435 1422 1424 1426 1426 1425 1428 1431 1434 1438 1443 1448 1451 1454 1456 1458 1460 1462 1465 1468 1470 1473 1475 1478 1482 1485 1488 1490 1493 1496 1498 1499 1502 1504 1506 1507 1509 1510
1437 1442 1441 1442 1447 1443 1432 1427 1426 1430 1433 1428 1429 1432 1436 1439 1443 1449 1453 1455 1457 1459 1460 1462 1464 1465 1467 1469 1472 1474 1478 1481 1484 1486 1489 1492 1494 1496 1498 1499 1501 1503 1505 1505
1430 1432 1438 1437 1445 1452 1440 1429 1427 1433 1440 1432 1433 1435 1438 1440 1446 1454 1454 1455 1458 1459 1460 1461 1463 1464 1465 1466 1468 1471 1474 1477 1480 1482 1485 1487 1490 1492 1494 1496 1498 1499 1501 1502
1431 1433 1435 1436 1442 1440 1436 1431 1430 1446 1444 1435 1436 1438 1441 1444 1449 1455 1456 1457 1459 1460 1461 1462 1463 1464 1464 1466 1467 1469 1472 1474 1476 1479 1481 1483 1484 1488 1491 1492 1494 1496 1497 1498
1436 1434 1434 1435 1444 1448 1435 1432 1437 1440 1437 1437 1439 1442 1445 1448 1451 1455 1458 1460 1461 1462 1463 1463 1464 1465 1466 1466 1468 1469 1471 1473 1475 1477 1479 1480 1482 1485 1487 1489 1490 1492 1493 1494
1442 1442 1441 1442 1445 1440 1437 1438 1438 1438 1439 1442 1444 1446 1448 1451 1454 1457 1460 1462 1464 1465 1465 1466 1467 1467 1468 1469 1470 1471 1472 1474 1476 1477 1478 1480 1481 1482 1484 1486 1487 1489 1490 1491
1441 1440 1439 1442 1443 1442 1442 1441 1441 1441 1444 1445 1447 1449 1451 1454 1457 1460 1463 1465 1467 1468 1468 1469 1470 1470 1471 1472 1472 1473 1474 1474 1475 1477 1478 1479 1481 1482 1483 1484 1485 1486 1487 1487
1444 1442 1444 1446 1446 1445 1445 1446 1446 1446 1447 1448 1450 1452 1455 1458 1461 1464 1466 1468 1470 1471 1472 1472 1473 1474 1475 1475 1475 1475 1476 1476 1477 1477 1479 1480 1481 1481 1482 1482 1483 1483 1484 1484
1445 1446 1447 1448 1446 1445 1448 1448 1448 1449 1450 1452 1454 1457 1460 1462 1465 1468 1470 1472 1473 1474 1475 1476 1477 1478 1478 1478 1478 1479 1478 1478 1478 1479 1480 1480 1481 1481 1481 1480 1480 1480 1481 1481